This demonstration page uses our WeatherBlox Daily Observations layout. Learn more.

Hourly Observations for October 24, 2020

Temp ( °F °C ) Dew Point ( °F °C ) Humidity (%) Winds ( mph kmh ) Pressure ( in mb ) Visibility ( mi km ) Precip ( " mm )
12:53 am 00:53 Clear 21 -6.1 18 -7.8 88 88 ESE 12 19 30.12 1020 10 16.0934 0 0
1:53 am 01:53 Clear 22 -5.6 19 -7.2 89 89 ESE 13 20 30.07 1018 10 16.0934 0 0
2:53 am 02:53 Clear 22 -5.6 19 -7.2 89 89 E 14 22 30.03 1017 10 16.0934 0 0
3:53 am 03:53 Clear 23 -5 20 -6.7 88 88 ESE 16 26 29.99 1016 10 16.0934 0 0
4:53 am 04:53 Clear 24 -4.4 21 -6.1 88 88 ESE 17 28 29.99 1016 10 16.0934 0 0
5:53 am 05:53 Clear 24 -4.4 21 -6.1 88 88 ESE 18 30 29.99 1016 10 16.0934 0 0
6:53 am 06:53 Clear 24 -4.4 21 -6.1 88 88 ESE 14 22 29.99 1016 10 16.0934 0 0
7:53 am 07:53 Mostly Cloudy 25 -3.9 22 -5.6 88 88 ESE 16 26 29.99 1016 10 16.0934 0 0
8:53 am 08:53 Cloudy 27 -2.8 23 -5 85 85 ESE 14 22 30.01 1016 10 16.0934 0 0
9:53 am 09:53 Cloudy 28 -2.2 24 -4.4 85 85 ESE 15 24 30.01 1016 10 16.0934 0 0
10:53 am 10:53 Cloudy 29 -1.7 24 -4.4 82 82 E 14 22 30.02 1017 10 16.0934 0 0
11:53 am 11:53 Cloudy 30 -1.1 25 -3.9 82 82 ESE 16 26 30.02 1017 10 16.0934 0 0
12:53 pm 12:53 Cloudy 31 -0.6 25 -3.9 79 79 ESE 13 20 29.99 1016 10 16.0934 0 0
1:53 pm 13:53 Cloudy 34 1.1 26 -3.3 73 73 SE 15 24 29.94 1014 10 16.0934 0 0
2:53 pm 14:53 Cloudy 35 1.7 26 -3.3 70 70 ESE 13 20 29.94 1014 10 16.0934 0 0
3:53 pm 15:53 Cloudy 35 1.7 27 -2.8 72 72 ESE 12 19 29.95 1014 10 16.0934 0.001 0.001
4:53 pm 16:53 Cloudy with Light Snow 34 1.1 27 -2.8 76 76 E 7 11 30 1016 8 12.87472 0.01 0.254
5:20 pm 17:20 Cloudy with Light Snow 33 0.6 28 -2.2 82 82 ENE 9 15 30.03 1017 2.5 4.02335 0.001 0.001
5:28 pm 17:28 Cloudy with Light Snow 33 0.6 29 -1.7 85 85 NE 8 13 30.04 1017 3 4.82802 0.001 0.001
5:53 pm 17:53 Cloudy with Light Snow 32 0 29 -1.7 88 88 N 8 13 30.05 1018 3 4.82802 0.001 0.001
6:08 pm 18:08 Cloudy with Light Snow 32 0 29 -1.7 88 88 NNE 9 15 30.08 1019 2 3.21868 0.001 0.001
6:22 pm 18:22 Cloudy with Light Snow 31 -0.6 29 -1.7 92 92 NNE 9 15 30.1 1019 1.75 2.816345 0.01 0.254
6:44 pm 18:44 Cloudy with Light Snow 31 -0.6 30 -1.1 96 96 N 6 9 30.12 1020 1 1.60934 0.02 0.508
6:53 pm 18:53 Cloudy with Light Snow 31 -0.6 30 -1.1 96 96 N 8 13 30.1 1019 1 1.60934 0.02 0.508
6:57 pm 18:57 Cloudy with Light Snow 31 -0.6 29 -1.7 92 92 N 10 17 30.14 1021 0.75 1.207005 0.01 0.254
7:18 pm 19:18 Cloudy with Light Snow 28 -2 27 -3 93 93 N 9 15 30.17 1022 0.75 1.207005 0 0
7:22 pm 19:22 Mostly Cloudy with Light Snow 29 -1.7 27 -2.8 92 92 N 12 19 30.17 1022 1 1.60934 0.03 0.762
7:34 pm 19:34 Cloudy with Light Snow 28 -2 27 -3 93 93 N 14 22 30.18 1022 1 1.60934 0 0
7:53 pm 19:53 Cloudy with Light Snow 28 -2.2 26 -3.3 92 92 N 13 20 30.14 1021 1.75 2.816345 0.05 1.27
8:36 pm 20:36 Cloudy with Light Snow 27 -2.8 25 -3.9 92 92 N 10 17 30.24 1024 2 3.21868 0.01 0.254
8:53 pm 20:53 Cloudy with Light Snow 27 -2.8 24 -4.4 89 89 N 13 20 30.18 1022 2 3.21868 0.02 0.508
9:17 pm 21:17 Cloudy with Light Snow 27 -2.8 24 -4.4 89 89 NNW 10 17 30.27 1025 3 4.82802 0.001 0.001
9:41 pm 21:41 Windy with Snow Likely 25 -3.9 22 -5.6 88 88 NNW 20 31 30.31 1026 2.5 4.02335 0.001 0.001
9:47 pm 21:47 Cloudy with Light Snow 25 -4 21 -6 86 86 NNW 18 30 30.32 1027 3 4.82802 0.001 0.001
9:53 pm 21:53 Cloudy with Light Snow 24 -4.4 20 -6.7 84 84 NNW 18 30 30.25 1024 3 4.82802 0.001 0.001
10:01 pm 22:01 Cloudy with Light Snow 24 -4.4 20 -6.7 84 84 N 17 28 30.33 1027 1.75 2.816345 0.001 0.001
10:27 pm 22:27 Mostly Cloudy with Light Snow 23 -5 20 -6.7 88 88 NNW 15 24 30.35 1028 1 1.60934 0.02 0.508
10:35 pm 22:35 Mostly Cloudy with Light Snow 23 -5 20 -6.7 88 88 NNW 15 24 30.35 1028 1 1.60934 0.02 0.508
10:53 pm 22:53 Mostly Cloudy with Light Snow 22 -5.6 19 -7.2 89 89 NNW 17 28 30.27 1025 1 1.60934 0.03 0.762
11:35 pm 23:35 Mostly Cloudy with Light Snow 21 -6.1 18 -7.8 88 88 NNW 16 26 30.37 1029 1 1.60934 0.01 0.254
11:53 pm 23:53 Mostly Cloudy with Light Snow 20 -6.7 17 -8.3 89 89 NNW 17 28 30.27 1025 1 1.60934 0.02 0.508

Powered by AerisWeather